Location: Bremen
(53.0793°N, 8.8017°E)
Time: 10:47:49
(UTC+02:00)

Tiangong - Visible Passes

Search period start: 18 October 2021 00:00
Search period end: 28 October 2021 00:00
Orbit: 382 x 385 km, 41.5° (Epoch: 17 October)

Date Brightness Start Highest point End Pass type
(mag) Time Alt. Az. Time Alt. Az. Time Alt. Az.
21 Oct 3.8 20:09:20 10° S 20:09:25 10° S 20:09:25 10° S visible
23 Oct 3.7 19:44:56 10° SSW 19:45:42 11° S 19:46:27 10° SSE visible
24 Oct 3.9 18:45:36 10° S 18:45:46 10° S 18:45:55 10° S visible
25 Oct 3.9 19:21:09 10° SSW 19:21:42 10° S 19:22:17 10° S visible
